Regional Weather Roundup
Issued by NWS Newport/Morehead, NC

Current Version | Previous Version | Graphics & Text | Print | Product List | Glossary On
Versions: 1 2 3 4 5 6 7 8 9 10 11 12 13 14 15 16 17 18 19 20 21 22 23 24 25 26 27 28 29 30 31 32 33 34 35 36 37 38 39 40 41 42 43 44 45 46 47 48 49 50
000 ASUS42 KMHX 010810 RWRMHX WEATHER ROUNDUP FOR EASTERN NORTH CAROLINA NATIONAL WEATHER SERVICE NEWPORT/MOREHEAD CITY NC 400 AM EDT WED OCT 01 2014 NOTE: "FAIR" INDICATES FEW OR NO CLOUDS BELOW 12,000 FEET WITH NO SIGNIFICANT WEATHER AND/OR OBSTRUCTIONS TO VISIBILITY NCZ015>017-031-032-045>047-102-103-010900- NORTH COAST CITY SKY/WX TMP DP RH WIND PRES REMARKS EDENTON CLEAR 60 59 97 N3 29.91S ELIZABETH CITY CLEAR 64 63 96 N6 29.90F KITTY HAWK MOSUNNY 69 64 84 N7 29.88S MANTEO PTCLDY 68 64 86 N9 29.89S $$ NCZ045>047-081-094-103-104-010900- CENTRAL COAST CITY SKY/WX TMP DP RH WIND PRES REMARKS FRISCO PTCLDY 68 66 93 N9 29.87S SWANQUARTER N/A 64 N/A N/A N3 29.85S $$ NCZ095-097-098-100-101-010900- SOUTHERN COAST CITY SKY/WX TMP DP RH WIND PRES REMARKS BEAUFORT CLEAR 64 64 100 N7 29.88S CEDAR ISLAND N/A 70 N/A N/A N12G20 29.91S JACKSONVILLE CLEAR 63 62 97 CALM 29.89S NEWPORT NOT AVBL PINEY ISLAND PTSUNNY 71 66 84 N9 29.88S HAZE WILMINGTON CLEAR 63 62 97 N3 29.89S $$ NCZ011>013-027>030-043-044-078>080-089-090>093-098-010900- COASTAL PLAIN CITY SKY/WX TMP DP RH WIND PRES REMARKS AHOSKIE CLEAR 56 55 97 CALM 29.92F FOG CLINTON CLEAR 60 60 100 CALM 29.91S ELIZABETHTOWN CLEAR 61 61 100 CALM 29.90S FOG GOLDSBORO CLEAR 62 62 98 CALM 29.90S GREENVILLE FOG 59 59 100 CALM 29.93S VSB 1/2 HAVELOCK CLEAR 66 63 90 N7 29.90S KENANSVILLE CLEAR 59 59 100 CALM 29.92R FOG KINSTON PTCLDY 60 60 99 CALM 29.92R FOG NEW BERN FOG 63 61 94 CALM 29.91S VSB 1/2 RICHLANDS PTCLDY 61 57 88 CALM 29.90S ROANOKE RAPIDS NOT AVBL ROCKY MOUNT FOG 57 56 96 CALM 29.93R VSB 1/2 WASHINGTON CLEAR 60 60 99 CALM 29.91S WHITEVILLE CLEAR 62 61 96 CALM 29.90S FOG $$ AMZ130-135-150-152-154-156-158-170-250-252-270-ANZ085-086-088-633-658-670-010900- MARINE OBSERVATIONS STATION/POSITION TIME TEMP WIND PRES WAVE SWELL AIR SEA DIR/SP/G HT/PER HT/PER (UTC) (F) (DEG/KT/KT) (MB) (FT/S) (FT/S) CHESAPEAKE LIGHT 0700 70 20/ 13/ 14 1013.2 BUOY 44014 0800 70 72 10/ 14/ 17 1011.2 3/ 4 2/14 DUCK 0800 70 73 20/ 16/ 17 1011.4 2E DUCK 0700 N/A 3/ 7 OREGON INLET 0800 70 74 360/ 10/ 15 1011.7 BUOY 44095 0700 73 N/A 3/ 7 2/14 20E OREGON INLET NOT AVBL HATTERAS CG 0800 71 74 10/ 16/ 18 1011.9 DIAMOND BUOY 0800 71 340/ 17/ 21 1010.7 4/ 6 2/ 9 CAPE LOOKOUT 0700 69 360/ 9/ 11 1011.5 BEAUFORT LAB 0800 67 75 10/ 8/ 11 1011.2 30 SE NEW RIVER 0800 73 79 20/ 14/ 16 1010.7 3/ 7 2/ 7 5 SE WRIGHTSVILL 0700 68 75 360/ 10/ 12 N/A BUOY 41002 NOT AVBL BUOY 41004 0800 76 81 360/ 8/ 10 1011.2 3/ 6 3/ 6 $$

USA.gov is the U.S. government's official web portal to all federal, state and local government web resources and services.